TimeEST,TemperatureF,Dew PointF,Humidity,Sea Level PressureIn,VisibilityMPH,Wind Direction,Wind SpeedMPH,Gust SpeedMPH,PrecipitationIn,Events,Conditions,WindDirDegrees,DateUTC
12:53 AM,48.9,33.1,54,30.28,10.0,WSW,8.1,-,N/A,,Clear,250,2011-11-25 05:53:00
1:53 AM,48.9,33.1,54,30.28,10.0,WSW,9.2,-,N/A,,Clear,250,2011-11-25 06:53:00
3:53 AM,39.9,30.9,70,30.29,10.0,SSE,3.5,-,N/A,,Clear,160,2011-11-25 08:53:00
4:53 AM,39.0,30.0,70,30.30,10.0,South,5.8,-,N/A,,Clear,180,2011-11-25 09:53:00
5:53 AM,39.9,30.0,68,30.30,10.0,SSW,6.9,-,N/A,,Clear,200,2011-11-25 10:53:00
6:53 AM,41.0,30.0,65,30.30,10.0,SSW,6.9,-,N/A,,Clear,200,2011-11-25 11:53:00
7:53 AM,39.9,30.9,70,30.31,10.0,South,4.6,-,N/A,,Clear,180,2011-11-25 12:53:00
8:53 AM,45.0,30.9,58,30.31,10.0,SSE,4.6,-,N/A,,Clear,160,2011-11-25 13:53:00
9:53 AM,50.0,30.9,48,30.31,10.0,SSW,4.6,-,N/A,,Clear,200,2011-11-25 14:53:00
10:53 AM,54.0,28.9,38,30.30,10.0,SW,6.9,-,N/A,,Clear,220,2011-11-25 15:53:00
11:53 AM,55.9,30.0,37,30.27,10.0,SW,6.9,-,N/A,,Clear,220,2011-11-25 16:53:00
12:53 PM,59.0,30.0,33,30.24,10.0,South,9.2,-,N/A,,Clear,180,2011-11-25 17:53:00
2:53 PM,62.1,30.9,31,30.20,10.0,SSE,5.8,-,N/A,,Clear,160,2011-11-25 19:53:00
3:53 PM,60.1,33.1,36,30.20,10.0,South,5.8,-,N/A,,Clear,170,2011-11-25 20:53:00
4:53 PM,57.0,30.0,36,30.20,10.0,SSE,4.6,-,N/A,,Clear,150,2011-11-25 21:53:00
5:53 PM,55.9,28.9,36,30.20,10.0,South,4.6,-,N/A,,Clear,180,2011-11-25 22:53:00
6:53 PM,54.0,30.9,41,30.20,10.0,SSE,3.5,-,N/A,,Clear,150,2011-11-25 23:53:00
7:53 PM,50.0,30.9,48,30.21,10.0,South,4.6,-,N/A,,Clear,170,2011-11-26 00:53:00
8:53 PM,51.1,28.9,43,30.21,10.0,South,4.6,-,N/A,,Clear,180,2011-11-26 01:53:00
10:53 PM,48.0,30.0,50,30.21,10.0,SSW,5.8,-,N/A,,Clear,200,2011-11-26 03:53:00
11:53 PM,46.0,30.0,54,30.22,10.0,South,8.1,-,N/A,,Clear,180,2011-11-26 04:53:00